TimeCST,TemperatureF,Dew PointF,Humidity,Sea Level PressureIn,VisibilityMPH,Wind Direction,Wind SpeedMPH,Gust SpeedMPH,PrecipitationIn,Events,Conditions,WindDirDegrees,DateUTC
12:53 AM,30.0,12.0,47,30.04,10.0,ENE,11.5,-,N/A,,Clear,60,2013-02-11 06:53:00
1:53 AM,27.0,12.0,53,30.08,10.0,NE,11.5,-,N/A,,Clear,50,2013-02-11 07:53:00
2:53 AM,27.0,14.0,58,30.07,10.0,NE,16.1,-,N/A,,Scattered Clouds,50,2013-02-11 08:53:00
3:53 AM,24.1,12.9,62,30.09,10.0,NE,12.7,-,N/A,,Clear,50,2013-02-11 09:53:00
4:53 AM,23.0,14.0,68,30.09,10.0,NNE,8.1,-,N/A,,Clear,20,2013-02-11 10:53:00
5:53 AM,21.9,12.9,68,30.11,10.0,North,6.9,-,N/A,,Clear,360,2013-02-11 11:53:00
6:53 AM,19.9,12.0,71,30.15,10.0,NNW,5.8,-,N/A,,Clear,340,2013-02-11 12:53:00
7:53 AM,19.9,12.0,71,30.19,10.0,North,8.1,-,N/A,,Clear,360,2013-02-11 13:53:00
8:53 AM,25.0,14.0,63,30.20,10.0,NNE,10.4,-,N/A,,Clear,30,2013-02-11 14:53:00
9:53 AM,30.0,16.0,56,30.20,10.0,ENE,10.4,-,N/A,,Clear,70,2013-02-11 15:53:00
10:53 AM,32.0,16.0,52,30.19,10.0,East,9.2,-,N/A,,Clear,90,2013-02-11 16:53:00
11:53 AM,35.1,17.1,48,30.17,10.0,East,6.9,16.1,N/A,,Clear,100,2013-02-11 17:53:00
12:53 PM,37.0,18.0,46,30.14,10.0,ESE,10.4,-,N/A,,Clear,120,2013-02-11 18:53:00
1:53 PM,39.0,18.0,43,30.09,10.0,SE,9.2,-,N/A,,Clear,130,2013-02-11 19:53:00
2:53 PM,41.0,18.0,40,30.05,10.0,South,9.2,-,N/A,,Clear,190,2013-02-11 20:53:00
3:53 PM,42.1,18.0,38,30.03,10.0,South,9.2,17.3,N/A,,Partly Cloudy,170,2013-02-11 21:53:00
4:53 PM,42.1,18.0,38,30.02,10.0,South,6.9,-,N/A,,Partly Cloudy,180,2013-02-11 22:53:00
5:53 PM,42.1,18.0,38,30.02,10.0,ESE,10.4,-,N/A,,Overcast,110,2013-02-11 23:53:00
6:53 PM,39.9,18.0,41,30.05,10.0,East,8.1,-,N/A,,Overcast,90,2013-02-12 00:53:00
7:53 PM,37.9,19.0,47,30.06,10.0,East,10.4,-,N/A,,Overcast,80,2013-02-12 01:53:00
8:53 PM,37.0,19.0,48,30.05,10.0,East,11.5,-,N/A,,Scattered Clouds,80,2013-02-12 02:53:00
9:53 PM,37.0,19.0,48,30.04,10.0,East,10.4,-,N/A,,Overcast,90,2013-02-12 03:53:00
10:53 PM,35.1,18.0,50,30.05,10.0,East,5.8,-,N/A,,Overcast,100,2013-02-12 04:53:00
11:53 PM,34.0,27.0,75,30.05,9.0,SSE,10.4,-,0.00,,Overcast,150,2013-02-12 05:53:00